Location: Shepherdstown, WV
(39.4326°N, 77.8042°W)
Time: 04:28:34
(UTC-04:00)

Vanguard 1 - Pass Details

Date: 07 October 2021
Orbit: 653 x 3829 km, 34.2° (Epoch: 18 October)

Event Time Altitude Azimuth Distance (km) Brightness Sun altitude
Rises 01:15:14 0° 279° (W) 7,179 14.5 -56.0°
Reaches altitude 10° 01:21:40 10° 266° (W) 6,537 14.1 -55.8°
Enters shadow 01:23:54 13° 261° (W) 6,365 14.0 -55.7°
